This is the latest recevied weather packets stored in our database for station/object W0AKO. If no packets are shown the sender has not sent any weather packets the latest 10 day(s).
| Time | Temp. | Humidity | Pressure | Rain* | Wind** | Luminosity | Snow |
|---|---|---|---|---|---|---|---|
| 1777909319 | 20° C | 10% | 1011.9 hPa | 0 mm | - | 174 W/m² | - |
| 1777909016 | 19.44° C | 10% | 1012 hPa | 0 mm | - | 176 W/m² | - |
| 1777908714 | 19.44° C | 10% | 1012.2 hPa | 0 mm | - | 159 W/m² | - |
| 1777908411 | 19.44° C | 10% | 1012 hPa | 0 mm | - | 202 W/m² | - |
| 1777908108 | 19.44° C | 10% | 1012.1 hPa | 0 mm | - | 231 W/m² | - |
| 1777907804 | 19.44° C | 10% | 1012.1 hPa | 0 mm | - | 182 W/m² | - |
| 1777907499 | 19.44° C | 10% | 1012.2 hPa | 0 mm | - | 126 W/m² | - |
| 1777907196 | 18.89° C | 10% | 1012.2 hPa | 0 mm | - | 161 W/m² | - |
| 1777906893 | 18.89° C | 10% | 1012.1 hPa | 0 mm | - | 122 W/m² | - |
| 1777906590 | 18.89° C | 10% | 1012 hPa | 0 mm | - | 98 W/m² | - |
| 1777906286 | 19.44° C | 10% | 1012.1 hPa | 0 mm | - | 111 W/m² | - |
| 1777905982 | 19.44° C | 10% | 1012 hPa | 0 mm | - | 164 W/m² | - |
| 1777905679 | 20° C | 10% | 1011.9 hPa | 0 mm | - | 170 W/m² | - |
| 1777905376 | 19.44° C | 10% | 1011.9 hPa | 0 mm | - | 162 W/m² | - |
| 1777905074 | 18.33° C | 10% | 1011.8 hPa | 0 mm | - | 152 W/m² | - |
| 1777904771 | 17.78° C | 10% | 1012 hPa | 0 mm | - | 124 W/m² | - |
| 1777904468 | 17.78° C | 10% | 1012.2 hPa | 0 mm | - | 98 W/m² | - |
| 1777904164 | 17.22° C | 10% | 1012.1 hPa | 0 mm | - | 75 W/m² | - |
| 1777903861 | 17.22° C | 10% | 1011.9 hPa | 0 mm | - | 71 W/m² | - |
| 1777903558 | 17.22° C | 10% | 1012.3 hPa | 0 mm | - | 75 W/m² | - |
| 1777903254 | 16.67° C | 10% | 1012.5 hPa | 0 mm | - | 77 W/m² | - |
| 1777902950 | 16.67° C | 10% | 1012.2 hPa | 0 mm | - | 62 W/m² | - |
| 1777902647 | 16.67° C | 10% | 1012.1 hPa | 0 mm | - | 56 W/m² | - |
| 1777902345 | 16.67° C | 10% | 1012.1 hPa | 0 mm | - | 57 W/m² | - |
| 1777902042 | 16.67° C | 10% | 1012.1 hPa | 0 mm | - | 49 W/m² | - |
* Rain latest hour (hover to see other rain measurements)
** Current wind speed in m/s (hover to see current wind gust speed)